SCP
1 1 1 1 1 1 1 1 0 0 0 0 0 0 0 0 0 0 0 0 0 0 0 0 0 0 0 0 0 0 0 0 0 0 0 0 0 0
1 1 1 1 1 1 1 1 0 0 0 0 0 0 0 0 0 0 0 0 0 0 0 0 0 0 0 0 0 0 0 0 0 0 0 0 0 0
1 1 1 1 1 1 1 1 1 0 0 0 0 0 0 0 0 0 0 0 0 0 0 0 0 0 0 0 0 0 0 0 0 0 0 0 0 0
1 1 0 0 0 1 1 1 0 0 0 0 0 0 0 0 0 0 0 0 0 0 0 0 0 0 0 0 0 0 0 0 0 0 0 0 0 0
0 0 0 0 0 0 1 1 0 0 0 0 0 0 0 0 0 0 0 0 0 0 0 0 0 0 0 0 0 0 0 0 0 0 0 0 0 0
0 0 0 0 0 1 1 0 0 0 0 0 0 0 0 0 0 0 0 0 0 0 0 0 0 0 0 0 0 0 0 0 0 0 0 0 0 0
0 0 0 0 0 0 0 0 0 0 0 0 0 0 0 0 0 0 0 0 0 0 0 0 0 0 0 0 0 0 0 0 0 0 0 0 0 0
0 0 0 0 0 0 0 0 0 0 0 0 0 0 0 0 0 0 0 0 0 0 0 0 0 0 0 0 0 0 0 0 0 0 0 0 0 0
1 1 1 1 0 0 0 0 0 0 0 0 0 0 0 0 0 0 0 0 0 0 0 0 0 0 0 0 0 0 0 0 0 0 0 0 0 0
1 1 1 1 0 0 0 0 0 0 0 0 0 0 0 0 0 0 0 0 0 0 0 0 0 0 0 0 0 0 0 0 0 0 0 0 0 0
0 0 0 0 0 0 0 0 0 0 0 0 0 0 0 0 0 0 0 0 0 0 0 0 0 0 0 0 0 0 0 0 0 0 0 0 0 0
0 0 0 0 0 0 0 0 0 0 0 0 0 0 0 0 0 0 0 0 0 0 0 0 0 0 0 0 0 0 0 0 0 0 0 0 0 0
0 0 0 0 0 0 0 0 0 0 0 0 0 0 0 0 0 0 0 0 0 0 0 0 0 0 0 0 0 0 0 0 0 0 0 0 0 0
0 0 0 0 0 0 0 0 0 0 0 0 0 0 0 0 0 0 0 0 0 0 0 0 0 0 0 0 0 0 0 0 0 0 0 0 0 0
0 0 0 0 0 0 0 0 0 0 0 0 0 0 0 0 0 0 0 0 0 0 0 0 0 0 0 0 0 0 0 0 0 0 0 0 0 0
0 0 0 0 0 0 0 0 0 0 0 0 0 0 0 0 0 0 0 0 0 0 0 0 0 0 0 0 0 0 0 0 0 0 0 0 0 0
0 0 0 0 0 0 0 0 0 0 0 0 0 0 0 0 0 0 0 0 0 0 0 0 0 0 0 0 0 0 0 0 0 0 0 0 0 0
0 0 0 0 0 0 0 0 0 0 0 0 0 0 0 0 0 0 0 0 0 0 0 0 0 0 0 0 0 0 0 0 0 0 0 0 0 0
0 0 0 0 0 0 0 0 0 0 0 0 0 0 0 0 0 0 0 0 0 0 0 0 0 0 0 0 0 0 0 0 0 0 0 0 0 0
0 0 0 0 0 0 0 0 0 0 0 0 0 0 0 0 0 0 0 0 0 0 0 0 0 0 0 0 0 0 0 0 0 0 0 0 0 0
0 0 0 0 0 0 0 0 0 0 0 0 0 0 0 0 0 0 0 0 0 0 0 0 0 0 0 0 0 0 0 0 0 0 0 0 0 0
0 0 0 0 0 0 0 1 1 0 0 0 0 0 0 0 0 0 0 0 0 0 0 0 0 0 0 0 0 0 0 0 0 0 0 0 0 0
0 0 0 0 0 0 0 1 1 0 0 0 0 0 0 0 0 0 0 0 0 0 0 0 0 0 0 0 0 0 0 0 0 0 0 0 0 0
Wind_Speed
1 2 1 1 1 1 1 2 3 2 1 1 1 1 2 3 4 3 3 5 6 5 5 5 5 5 5 6 6 6 6 6 6 7 7 8 8 9
1 2 1 1 1 1 1 1 1 2 1 1 1 2 2 3 4 3 4 7 6 5 4 4 4 4 4 5 5 5 6 6 6 6 6 7 8 8
2 3 2 2 2 2 2 2 2 2 2 1 2 2 3 3 3 2 2 3 3 4 4 3 3 4 4 4 4 4 5 5 5 5 6 6 7 7
2 3 3 3 2 2 1 2 2 2 3 3 2 1 2 2 2 2 2 2 2 4 4 3 3 3 3 4 4 4 4 5 5 5 5 5 6 6
2 3 2 3 2 1 1 1 1 2 2 3 2 1 1 1 2 1 2 1 2 2 3 3 2 2 2 2 2 3 3 4 4 4 4 5 5 6
2 3 3 3 3 2 2 2 2 2 2 2 2 1 1 1 2 1 1 0 1 1 1 2 2 1 1 1 2 2 2 2 3 3 4 4 5 5
2 3 4 5 6 4 3 2 2 2 1 1 1 1 1 1 0 0 0 0 0 0 0 1 1 0 1 1 1 1 1 1 2 2 3 4 4 5
2 3 4 5 6 5 5 4 3 2 1 1 1 1 1 1 1 1 1 0 1 1 1 1 1 1 1 2 2 2 2 1 2 2 3 3 4 5
1 2 2 3 4 2 2 2 1 1 2 2 1 1 1 1 1 1 1 1 2 2 1 1 1 1 1 1 2 3 3 3 2 3 3 4 4 5
1 2 2 2 2 2 2 2 1 1 2 2 2 1 1 0 1 2 2 0 1 0 2 1 1 1 1 1 2 2 2 2 3 3 4 4 5 5
1 2 2 3 3 3 2 1 1 0 1 3 3 2 2 2 2 2 1 1 1 2 0 1 1 1 1 1 2 3 3 3 3 4 4 4 5 5
1 2 3 4 4 3 1 1 0 0 1 1 0 0 0 0 1 1 2 1 1 2 1 1 1 1 2 2 1 1 2 3 4 5 5 4 4 2
1 1 2 4 4 2 2 1 1 1 0 0 1 0 0 1 1 1 1 1 1 2 1 1 1 1 1 2 2 2 2 1 2 3 4 5 5 3
1 1 2 4 3 2 1 0 0 1 0 0 0 0 0 1 1 1 1 1 1 2 2 1 1 1 1 2 3 2 2 2 1 2 2 4 5 5
0 1 2 3 2 1 1 1 0 0 1 1 1 1 1 1 0 0 1 1 2 2 1 1 1 2 2 2 3 2 2 2 2 1 2 2 2 2
0 1 1 2 2 2 1 1 1 1 2 2 2 1 1 0 1 1 1 1 1 3 2 1 1 2 2 3 3 3 2 2 2 2 2 2 2 2
1 1 1 1 1 1 1 2 2 1 2 1 1 1 1 1 2 1 1 1 1 2 3 2 1 1 2 2 3 3 2 2 2 2 2 3 3 2
2 2 2 2 2 2 2 2 2 2 2 2 2 2 2 2 2 2 1 2 2 2 2 2 1 2 2 3 3 3 3 3 2 2 2 2 4 3
2 2 2 2 2 2 2 2 2 2 2 2 2 2 2 2 2 2 2 2 2 3 2 2 1 1 3 4 4 4 3 3 2 2 3 3 4 4
2 3 3 2 2 2 2 2 2 2 2 2 2 2 2 2 2 2 2 2 3 3 2 2 2 3 4 4 4 4 5 4 3 3 3 3 3 3
3 3 3 2 2 2 2 2 2 2 2 2 3 3 3 3 3 3 3 4 3 3 4 4 4 4 2 1 3 4 3 4 4 3 2 2 3 3
3 3 3 2 2 2 2 2 2 2 2 2 3 3 3 3 4 4 3 3 3 4 4 3 2 2 2 3 4 5 4 3 4 5 5 4 3 3
3 3 3 3 2 2 2 2 3 2 2 3 3 3 2 3 3 3 4 4 3 3 3 3 2 2 3 3 4 4 4 4 3 3 4 6 7 7
Wind_Direction
82 87 90 72 40 42 66 118 133 129 106 114 95 129 120 120 131 131 121 111 106 94 82 70 60 58 53 47 43 41 39 34 32 30 26 25 25 24
103 87 65 55 44 49 53 46 70 130 131 128 114 125 109 110 120 124 124 120 118 111 98 84 70 62 57 51 46 43 40 36 34 30 26 24 21 20
126 111 92 70 65 50 44 43 41 78 110 85 84 101 95 99 99 101 116 121 123 122 113 98 86 72 63 58 50 43 41 38 32 27 23 22 20 17
107 109 111 97 75 53 53 62 63 65 106 109 93 93 98 126 127 127 114 119 122 115 116 103 99 87 74 64 56 48 41 37 30 24 21 17 13 10
109 112 114 112 109 83 76 73 74 75 85 114 119 104 96 103 101 94 94 92 116 112 125 111 100 101 85 72 61 50 42 37 30 25 21 12 6 3
98 100 100 104 107 96 84 66 78 79 75 100 108 106 101 85 90 88 45 14 84 103 119 139 131 132 130 92 61 42 41 37 26 18 13 6 357 352
110 107 111 111 100 97 94 80 78 80 90 104 106 94 84 89 133 176 128 286 281 78 104 175 145 157 204 216 224 308 331 346 351 350 355 354 348 340
130 125 128 125 117 115 111 107 112 121 126 117 136 155 207 195 181 155 158 118 290 272 128 263 144 193 223 201 206 215 237 277 299 308 321 331 332 328
132 126 127 125 128 129 126 124 105 139 158 153 155 204 181 197 159 182 223 220 227 227 120 275 281 243 251 208 218 223 229 246 272 287 296 308 312 311
142 135 132 120 116 118 144 161 189 194 184 172 169 183 112 138 172 190 207 243 310 345 109 217 278 264 269 240 235 223 229 256 280 293 301 307 310 308
106 101 118 119 110 105 116 141 154 262 156 141 142 132 99 56 63 87 74 87 294 281 294 152 265 280 266 243 257 244 240 248 269 285 294 302 305 301
124 100 89 108 113 114 129 128 147 284 74 92 111 158 165 67 37 142 156 160 241 275 268 140 277 337 305 277 261 253 252 256 261 274 284 292 301 296
135 127 125 127 132 135 123 125 196 173 163 148 162 181 176 167 175 173 170 173 197 247 249 125 241 251 238 282 281 251 239 258 262 270 268 275 278 266
136 129 130 137 136 140 136 138 34 44 92 76 128 192 208 236 230 198 240 262 235 228 218 165 203 219 247 279 281 278 268 250 230 249 258 271 267 264
76 121 141 154 150 163 203 210 79 122 150 183 218 236 231 220 184 257 288 294 309 288 243 229 220 233 223 241 259 268 278 269 237 249 262 260 257 259
163 106 162 188 195 180 192 216 207 196 189 208 221 234 248 233 225 208 232 281 306 297 283 255 238 233 253 257 250 262 251 250 265 258 263 268 266 248
176 170 164 176 208 198 196 201 201 203 220 225 220 231 237 232 237 224 203 206 244 269 287 297 286 259 248 249 257 259 260 263 256 253 264 275 267 248
177 188 197 198 204 206 202 207 204 211 217 215 218 221 227 231 239 234 220 221 244 255 259 268 298 325 325 302 244 250 257 256 262 257 247 262 274 269
193 206 209 209 215 213 207 206 210 213 208 208 219 228 235 240 241 240 231 236 247 250 254 249 235 232 268 281 279 247 245 258 261 259 248 247 260 266
205 208 214 215 214 211 210 213 220 217 214 218 222 228 231 235 242 244 236 238 251 257 258 250 232 226 235 254 268 276 250 245 244 251 260 269 273 279
214 217 217 216 213 208 204 207 213 220 224 222 224 228 230 233 243 244 241 251 249 246 248 249 248 254 254 263 277 279 272 254 253 250 250 269 288 289
216 217 220 220 217 213 210 212 218 218 221 226 234 237 233 231 239 242 238 244 248 248 256 262 260 252 246 250 264 272 278 288 286 289 280 252 238 252
221 215 212 212 213 214 217 224 228 228 226 229 235 239 243 246 243 239 239 240 249 257 263 266 265 254 250 250 259 268 270 275 278 287 282 272 268 269